Home   Weather   Rostock   Past weeks

Flag for Germany Past Weather in Rostock, Mecklenburg-Western Pomerania, Germany — Yesterday and Last 2 Weeks

41 °F


Feels Like: 39 °F
Forecast: 44 / 50 °F
Wind: 3 mph from Northwest

Location: Laage

Current Time: Oct 25, 2016 at 7:05:43 AM

Latest Report: Oct 25, 2016 at 6:20 AM

Visibility: 0 mi

Pressure: 30.07 "Hg

Humidity: 100%

Dew Point: 41 °F

Location of RostockLocation

Past Weather in Rostock — Graph


Rostock Temperature Yesterday

Maximum temperature yesterday: 50 °F (at 2:20 PM)
Minimum temperature yesterday: 41 °F (at 3:20 AM)
Average temperature yesterday: 45 °F

High & Low Weather Summary for the Past Weeks

High52 °F (Oct 18, 2:20 PM)100% (Oct 10, 6:20 AM)30.30 "Hg (Oct 10, 6:20 AM)
Low34 °F (Oct 10, 6:20 AM)67% (Oct 14, 4:20 PM)29.89 "Hg (Oct 15, 7:20 AM)
Average46 °F91%30.08 "Hg
* Reported Oct 10 5:20 AM — Oct 25 5:20 AM, Rostock, Weather by CustomWeather, © 2016

Note: Actual official high and low records may vary slightly from our data, if they occured in-between our weather recording intervals... More about our weather records


Rostock Weather History for the Previous 24 Hours

Scroll right to see more
Time TempWeatherWind HumidityBarometerVisibility
5:20 AM
Tue, Oct 25
39 °FFog.2 mph100%30.07 "Hg0 mi
4:20 AM41 °FFog.No wind100%30.07 "Hg0 mi
3:20 AM41 °FFog.3 mph100%30.07 "Hg2 mi
2:20 AM41 °FFog.No wind100%30.07 "Hg2 mi
1:20 AM41 °FFog.2 mph93%30.04 "Hg1 mi
12:20 AM43 °FFog.2 mph93%30.07 "Hg2 mi
11:46 PM
Mon, Oct 24
41 °FFog.2 mph100%30.07 "Hg2 mi
11:20 PM43 °FFog.No wind93%30.07 "Hg2 mi
10:20 PM45 °FFog.5 mph93%30.04 "Hg3 mi
9:20 PM45 °FOvercast.6 mph93%30.07 "Hg4 mi
8:46 PM45 °FLow clouds.3 mph93%30.07 "Hg4 mi
8:20 PM45 °FOvercast.3 mph93%30.07 "Hg5 mi
7:20 PM46 °FPassing clouds.3 mph87%30.07 "Hg5 mi
7:04 PM46 °FPassing clouds.3 mph87%30.07 "Hg5 mi
6:20 PM46 °FPassing clouds.3 mph87%30.07 "Hg4 mi
5:20 PM48 °FPartly sunny.3 mph82%30.07 "Hg4 mi
4:20 PM50 °FPartly sunny.5 mph76%30.04 "Hg4 mi
3:20 PM50 °FPartly sunny.7 mph76%30.04 "Hg4 mi
2:20 PM50 °FPartly sunny.9 mph76%30.07 "Hg4 mi
1:20 PM48 °FBroken clouds.6 mph82%30.07 "Hg4 mi
12:20 PM46 °FFog.6 mph87%30.07 "Hg3 mi
11:48 AM46 °FFog.8 mph87%30.07 "Hg2 mi
11:20 AM45 °FFog.7 mph93%30.07 "Hg1 mi
10:49 AM45 °FFog.7 mph93%30.07 "Hg1 mi
10:20 AM45 °FFog.8 mph93%30.07 "Hg1 mi
9:20 AM43 °FFog.7 mph100%30.07 "Hg0 mi
8:20 AM43 °FFog.7 mph100%30.07 "Hg0 mi
8:03 AM43 °FFog.6 mph100%30.07 "Hg0 mi
7:20 AM43 °FFog.5 mph100%30.04 "Hg1 mi
Weather by CustomWeather, © 2016

See weather overviewHow to use our weather pages